OPS 4682 DEB, 38429

Orbit data source: Space-Track

OPS 4682 DEB, 38429 is space debris in LEO originally from a launch on Sat, 03 Apr 1965 UTC launched from the Air Force Western Test Range (AFWTR). Debris objects in space refer to the collection of defunct objects orbiting the Earth. Examples of debris include non-operational satellites, rocket bodies, and fragments generated from explosions, collisions, or faulty payload assembly.

Loading next visibility...
Identifier
38429, 1965-027EJ
Orbit
LEO
Country
Flag of USUS
Related business
Manufacturer
Unknown
Mission
Spacecraft
Bus & Motor
Unknown
Mass
Unknown
Launch date (UTC)
1965-04-03 (61 years ago)
Launch vehicle
Unknown
Launch site
Air Force Western Test Range (AFWTR)
Object type
Payload
Rocket body
Debris
Shape & HBR
Unknown shape, 0.1 m
Radar Cross Section
Small (<0.1 m²)

Expand to show TLE details & history
Last TLE update: 6 days ago

TLE from 6 days ago
0 OPS 4682 DEB
1 38429U 65027EJ  26099.16578670  .00000701  00000-0  23667-2 0  9996
2 38429  90.2395 359.2582 0039779 214.9554 144.8955 12.97970671580463
Epoch: 2026-04-09T03:58Z
TLE epoch observation values (Epoch: 2026-04-09T03:58:43.970Z)
Latitude
0.00002°
Longitude
102.15728°
Altitude
1,297.863 km
Speed
7.196 km/s
True Right ascension
23h 57m 01s
True Declination
0° 00' 00"
Sunlit
Object was in daylight at epoch
Visualization orbit readout
Latitude
Unknown
Longitude
Unknown
Altitude
Unknown
Speed
Unknown
Apparent Right ascension
Unknown
Apparent Declination
Unknown
Sunlit
N/A
Visualization observer readout
Local Sidereal Time
22:57:30
Azimuth
Unknown
Elevation
Unknown
Doppler factor
Unknown
Orbital elements
Apogee altitude
1,297.59 km
Perigee altitude
1,236.766 km
Semi-major axis
7,645.315 km
Eccentricity
0.00398
Inclination
90.2395°
RAAN
359.2582°
Arg. of periapsis
214.9554°
True anomaly
145.15657°
Mean anomaly
144.8955°
Eccentric anomaly
145.02614°
Mean motion
3.24676 °/min
Orbital period
110.88 mins
BSTAR
0.0023667
Loading maneuver chart data...
Computing Atmospheric mass density...
Loading historical data...
Loading historical data...
Loading historical data...
Loading historical data...
Loading historical data...
Loading historical data...
Loading historical data...

Documentation

Showing up to 5 results
|